National Oceanic Atmosphere Administration National Weather Service Headquarters National Weather Service Headquarters
NOAA logo WFO Anchorage Scalable transition graphic NWS logo
Transition from title bar to navgation bar   Aviation Weather 15 AKST 
blankspace Home   |   Mobile   |   Social Media   |   Mesonet   |   Surface Map   |   Radar   |   Submit Storm Reports   |   News =00 GMT 

LocalForecast by City, St or Zip Code

spacer

Forecasts/Products
  Public
  Forecast Discussion
    - With Glossary
  Aviation
  Marine
  Hydrology(RFC)
  Rivers & Lakes AHPS
  Ice Desk
  TV Weather
  Fire Weather
  Avalanche
  Travel 511
  Graphical
  xml logo RSS Feeds
  Marine FTPMail

spacer

Data
  Mesonet
  Model Graphics
  Local Model
  Observations
  Marine Obs
  Satellite/Radar
  Vent Factor
  Soaring Index
  Weather Links

spacer

Climate
  PAFC Climate
  Interactive Climate
  PAFC Records
  Local
  National
  More

spacer

Outreach
  About Us
  Community Outreach
  Kids' Page
  Tour/Speaker Request
  Weather Classroom
  Social Media

spacer

Reports
  COOP Observers
  Local Storm Reports
  Spotter Page
  Submit a Storm Report

spacer

Miscellaneous
  Archived Alaska Weather Stories
  Student Career Opportunities
  Research Papers

spacer

Print Friendly/
Low Bandwidth

  Public Forecasts
  Marine Forecasts

spacer

Contact Us
  mailto pafcweb

spacer

Facebook Follow the National Weather Service in Alaska on Twitter
USA.gov is the U.S. government's official web portal to all federal, state and local government web resources and services.


 ICAO ID:   AAWU Graphics

Internet access to TAFs and METAR observations is for planning purposes only. We can not guarantee the timeliness of internet products. Before flying please get a formal pilot briefing (1-800-992-7433) and ALWAYS file a Flight Plan!Pilot briefings are provided to licensed aircraft pilots, ONLY! Others may not use the above number to obtain weather information.

Check out the Key to TAFs and METARs for help with decoding the information.

A 12 hour summary of TAFs can be found here.

PAFA TAF
PAFA 312332Z 0100/0206  00000KT P6SM FEW003 FEW150=


METAR PAFA 312353Z 00000KT 7SM CLR M26/M30 A3069 RMK AO2 SLP413
     T12611300 11261 21328 56020=
METAR PAFA 312353Z 00000KT 7SM CLR M26/M30 A3069=
METAR PAFA 312253Z COR 00000KT 7SM FEW003 FEW150 M27/M32 A3070 RMK AO2
     SLP417 T12721317=
METAR PAFA 312253Z 00000KT 6SM FEW003 FEW150 M27/M32 A3070=
METAR PAFA 312153Z 00000KT 5SM BR FEW003 FEW150 M29/M33 A3072 RMK AO2
     SLP426 T12891328=
METAR PAFA 312153Z 00000KT 5SM BR FEW003 FEW150 M29/M33 A3072=
METAR PAFA 312053Z 00000KT 5SM BR FEW003 FEW150 M29/M35 A3074 RMK AO2
     SLP434 T12941350 56003=
METAR PAFA 312053Z 00000KT 5SM BR FEW003 FEW150 M29/M35 A3074=


National Weather Service
Anchorage Forecast Office
6930 Sand Lake Road
Anchorage, Ak 99502
(907) 266-5105 M-F/7-5pm
About Us
Career Opportunities
Glossary
Disclaimer
Privacy Policy
Credits
Alaska Weather Information Line:
1-800-472-0391